Погода в Кислокане

Погода в Кислокане : погода сейчас, прогноз погоды и архив. Всё, что Вы хотите узнать о погоде в Кислокане!

Поиск расширенной информации на нашем сайте:

Другие новости

Новости СМИ2

Главная страница сайта

Новости сайта

03.07.2017

Напоминаем, что на нашем специализированном сайте Метеоцентр.Азия вы можете получить высокодетализированные автоматические прогнозы погоды по пунктам России, СНГ и мира в авиационном формате (включающие направление и скорость ветра, видимость, явления погоды, количество и форму облачности, нижнюю и верхнюю границу облачности).


Погода в Кислокане - сегодня

Время (UTC), дата Ветер
(°,м/с) 
Видим.   Явления Облачность Т
(°С)
Тd
(°С)
f(%) Тe
(°С)
Pmin
(гПа)
dP
(гПа)
Po
(мм)
O2
(г/м3)
Тmin Tmax R s Состояние
почвы
03 16.04.18 240 (ЮЗ) 20000 м    8/4 1000 м верхняя 
[Cu Sc|Ci sp]
+0.8 -5.6 62 -2  1001.8  -0.4  732  295           
06 16.04.18 240 (ЮЗ) 4{10}  20000 м    10/8 600 м кучево-дожд., верхняя 
[Cb cap|Ci sp]
+2 -8.2 47 1001.1  -0.6  731  293           
09 16.04.18 240 (ЮЗ) 20000 м    10/9 600 м кучево-дожд., верхняя 
[Cb cap|Ci sp]
+3.5 -7.6 44 +1  1000.4  -0.5  731  292           
12 16.04.18 250 (З) 4{10}  20000 м    10/4 1000 м средняя, верхняя 
[Sc|Ac trans|Ci sp]
+2.1 -7.1 51 1000.7  0.2  731  293    +3.7       
15 16.04.18 130 (ЮВ) н/о    10/3 1000 м верхняя 
[Sc|Ci sp]
-4.1 -8.3 73 -4  1001.2  -0.2  731  300           
18 16.04.18 210 (ЮЗ) н/о    10/4 1000 м средняя, верхняя 
[Sc|Ac trans|Ci sp]
-1.1 -4.3 79 -2  999.8  -1.1  730  296           
00 17.04.18 240 (ЮЗ) 20000 м    3/3 1000 м 
[Sc]
-1 -4.9 75 -2  1000.2  0.4  731  296  -4.3      27  равномерный
мокрый или
старый снег
100% 
03 17.04.18 240 (ЮЗ) 20000 м    9/3 1000 м верхняя 
[Cu hum|Cs]
+2.4 -6.2 53 +2  999.4  -0.4  730  292           
06 17.04.18 190 (Ю) 20000 м    10/6 600 м кучево-дожд., верхняя 
[Cb cap|Cs]
+4.8 -5.9 46 +4  997.3  -1.8  729  289           
09 17.04.18 170 (Ю) 10 км  слаб. ливневой дождь  10/10 600 м кучево-дожд. 
[Cb cap]
+3.4 -2.3 66 +1  995.6  -1.8  728  290           
12 17.04.18 130 (ЮВ) 2000 м  слаб. ливневой снег  10/10 600 м кучево-дожд. 
[Cb cap]
+0.6 +0 96 -2  994  -1.9  726  292    +5.5     
15 17.04.18 100 (В) н/о  {ливн. осадки}  10/6 600 м средняя, верхняя 
[Cu Sc|Ac trans|Ci sp]
+0.5 -0.3 94 -1  991.5  -2.3  724  291           
18 17.04.18 100 (В) н/о  {ливн. осадки}  10/8 600 м средняя, верхняя 
[Cu Sc|Ac trans|Ci sp]
+0.9 +0.1 94 +2  989.1  -2.3  723  290           
21 17.04.18 290 (З) н/о  слаб. ливневой снег  10/10 600 м кучево-дожд. 
[Cb cap]
-0.8 -2 92 -3  988.5  -0.8  722  292           
00 18.04.18 270 (З) 20000 м  {ливн. осадки}  10/5 1000 м средняя 
[Cu Sc|Ac trans]
-3.2 -7.5 72 -6  989.6  0.8  723  295  -3.3    27  равномерный
сухой снег
100% 
12 18.04.18 320 (СЗ) 5{12}  20000 м  позёмок{снег}  10/4 1000 м средняя, верхняя 
[Sc|Ac trans|Cs]
-1.2 -6.6 67 -4  996.1  3.5  728  295    -1.2     
00 19.04.18 330 (СЗ) 4{11}  20000 м    10/1 1000 м верхняя 
[Sc|Ci fib]
-10.4 -18.8 50 -14  1007.1  1.9  735  309  -11.2      27  равномерный
сухой снег
100% 
03 19.04.18 330 (СЗ) 4{11}  20000 м    4/0 верхняя 
[Ci sp]
-8.3 -18.7 43 -12  1008  1.1  736  307           
06 19.04.18 320 (СЗ) 5{12}  20000 м    4/0 верхняя 
[Ci fib]
-6.2 -17.5 40 -10  1008.5  0.7  736  305           
09 19.04.18 330 (СЗ) 5{13}  20000 м    10/1 1000 м верхняя 
[Sc|Ci sp]
-4.9 -17 38 -9  1010.1  1.5  737  304           
12 19.04.18 320 (СЗ) 4{11}  20000 м    5/3 1000 м верхняя 
[Sc|Ci sp]
-6.2 -17.5 40 -10  1011.7  1.5  739  306    -4.4       
15 19.04.18 290 (З) н/о    1/1 1000 м 
[Sc]
-9.2 -17.3 52 -11  1012.8  0.8  739  310           
18 19.04.18 310 (СЗ) н/о    1/1 1000 м 
[Sc]
-10.3 -17.6 55 -13  1013.2  0.3  739  311           
21 19.04.18 300 (СЗ) н/о    3/1 1000 м верхняя 
[Sc|Ci fib]
-10.2 -17.5 55 -13  1013.5  0.3  740  311           
00 20.04.18 300 (СЗ) 20000 м    3/0 верхняя 
[Ci fib]
-7.1 -17.1 45 -10  1014.2  740  308  -12.8      27  равномерный
сухой снег
100% 
Время (UTC), дата Ветер
(°,м/с) 
Видим.   Явления Облачность Т
(°С)
Тd
(°С)
f(%) Тe
(°С)
Pmin
(гПа)
dP
(гПа)
Po
(мм)
O2
(г/м3)
Тmin Tmax R s Состояние
почвы

Для получения пояснительной информации подведите курсор к названию столбца.

ПОГОДА в Кислокане - архив

Всё, что Вы хотите узнать о погоде в Кислокане - удобно и подробно!

Выберите нужную дату (начиная с 1 января 2015* года) и нажмите кнопку "Найти".
Будут отображены архивные сводки погоды по пункту Кислокан, начиная с указанной даты.


Отображать данные в формате CSV (для использования в таблицах Excel)


Внимание! Наш архив погоды предназначен исключительно для личного некоммерческого использования в познавательных целях. Если Вам необходимы официальные справки о состоянии погоды (для производственных, юридических, коммерческих и т.п. целей), обращайтесь в органы Росгидромета.

*Примечание: данная дата относится к архиву по метеостанциям СССР (Россия, СНГ, Балтия).
Архив по метеостанциям Зарубежной Европы и Азии (кроме Китая) хранится 10 дней, по другим регионам земного шара (Китай, Африка, Америка, Австралия, Океания) - 1 день.

Кислокан - район местоположения метеостанции


Название, широта, долгота, высота метеостанции:
Кислокан 63.6°ш. 104°д. 209 м над ур. моря [Российская Федерация]

Дополнительная информация

В oтличие oт бoльшинства пoгoдных сайтoв мы публикуем пoдрoбную метеoинфoрмацию в детальнoм прoфессиoнальнoм фoрмате.

Характеристики температуры и влажнoсти вoздуха измеряются на высoте 2 м в тени вдали oт зданий и деревьев.
Скoрoсть ветра измеряется на высoте 10 м (на урoвне рoста челoвека скoрoсть ветра ниже в 1.5-2 раза). Если метеoстанция нахoдится в гoрoде или в лесу, тo скoрoсть ветра занижена на 2-4 м/с пo сравнению с oткрытым местoм. Скoрoсть ветра над акватoриями крупных рек и oзёр, а также на вершинах хoлмoв на 2-5 м/с выше, чем в oбычных услoвиях.
Атмoсфернoе давление в разных тoчках местнoсти мoжет значительнo oтличаться oт давления на метеoстанции, в зависимoсти oт услoвий рельефа (при пoдъёме на 10 м давление пoнижается примернo на 1 мм рт.ст.).